Date String (YYYY-MM-DD hh:mm:ss) UTC,Instrument flags,absolute air pressure of the measurement (hPa),sample flow rate (lpm),inlet stack bypass flow (lpm),air temperature of the measurement (°C),ambient temperature measured by the external sensor (°C),aerosol sample conditioner tube jacket temperature (°C),OPC LED temperature (°C),internal box temperature (°C),relative humidity of the measurement (%),span deviation,mass concentration of particles derived from Lorenz-Mie calculation of OPC scattering (μg/m³),mass concentration of particles derived from Lorenz-Mie calculation of OPC scattering (μg/m³),mass concentration of particles derived from Lorenz-Mie calculation of OPC scattering (μg/m³)
DateTimeUTC,F1_M11,P_M11,Q1_M11,Q2_M11,T1_M11,T2_M11,T3_M11,T4_M11,T5_M11,U1_M11,ZSPAN_M11,X0_M11,X2_M11,X1_M11
2024-06-03 00:00:00,SystemResetWarning,0823.3,5.00,000.00,029.4,028.7,000.0,037.6,031.2,017.4,0000.0,0016.79,0003.89,0002.74
2024-06-03 00:01:00,SystemResetWarning,0823.2,5.00,000.00,029.5,028.9,000.0,037.6,031.3,017.0,0000.0,0017.14,0003.94,0002.74
2024-06-03 00:02:00,SystemResetWarning,0823.2,5.00,000.00,029.6,029.0,000.0,037.6,031.4,017.2,0000.0,0017.42,0003.93,0002.73
2024-06-03 00:03:00,SystemResetWarning,0823.2,4.99,000.00,029.6,029.2,000.0,037.7,031.5,017.3,0000.0,0016.76,0003.99,0002.74
2024-06-03 00:04:00,SystemResetWarning,0823.1,4.99,000.00,029.7,029.3,000.0,037.7,031.6,017.5,0000.0,0017.00,0004.01,0002.73
2024-06-03 00:05:00,SystemResetWarning,0823.1,4.99,000.00,029.7,028.3,000.0,037.8,031.1,017.5,0000.0,0016.95,0004.03,0002.72
2024-06-03 00:06:00,SystemResetWarning,0823.0,5.01,000.00,029.3,026.4,000.0,037.8,030.2,017.5,0000.0,0015.24,0004.03,0002.71
2024-06-03 00:07:00,SystemResetWarning,0822.9,5.01,000.00,029.1,026.5,000.0,037.8,030.2,017.5,0000.0,0015.74,0004.05,0002.72
2024-06-03 00:08:00,SystemResetWarning,0822.9,4.99,000.00,029.1,026.9,000.0,037.7,030.3,017.6,0000.0,0016.65,0004.09,0002.71
2024-06-03 00:09:00,SystemResetWarning,0822.9,5.00,000.00,029.1,027.3,000.0,037.6,030.6,017.7,0000.0,0016.93,0004.12,0002.73
2024-06-03 00:10:00,SystemResetWarning,0822.9,5.01,000.00,029.2,027.7,000.0,037.6,030.8,017.6,0000.0,0017.13,0004.15,0002.72
2024-06-03 00:11:00,SystemResetWarning,0823.0,5.01,000.00,029.2,028.0,000.0,037.6,030.9,017.7,0000.0,0017.96,0004.19,0002.73
2024-06-03 00:12:00,SystemResetWarning,0823.0,5.00,000.00,029.3,028.3,000.0,037.6,031.0,017.9,0000.0,0018.07,0004.19,0002.75
2024-06-03 00:13:00,SystemResetWarning,0823.0,5.00,000.00,029.4,028.5,000.0,037.6,031.2,018.4,0000.0,0017.70,0004.20,0002.75
2024-06-03 00:14:00,SystemResetWarning,0823.0,5.00,000.00,029.4,028.7,000.0,037.6,031.3,018.9,0000.0,0018.07,0004.24,0002.74
2024-06-03 00:15:00,SystemResetWarning,0823.0,5.00,000.00,029.5,028.9,000.0,037.6,031.3,018.2,0000.0,0018.10,0004.28,0002.75
2024-06-03 00:16:00,SystemResetWarning,0823.0,4.99,000.00,029.6,029.0,000.0,037.7,031.4,017.9,0000.0,0017.70,0004.25,0002.76
2024-06-03 00:17:00,SystemResetWarning,0823.0,4.99,000.00,029.7,029.2,000.0,037.7,031.5,018.2,0000.0,0018.64,0004.24,0002.77
2024-06-03 00:18:00,SystemResetWarning,0822.9,4.99,000.00,029.7,029.3,000.0,037.7,031.6,018.2,0000.0,0017.38,0004.22,0002.76
2024-06-03 00:19:00,SystemResetWarning,0822.8,4.99,000.00,029.8,029.1,000.0,037.8,031.4,017.4,0000.0,0016.65,0004.21,0002.76
2024-06-03 00:20:00,SystemResetWarning,0822.8,5.00,000.00,029.5,026.8,000.0,037.9,030.3,017.7,0000.0,0017.02,0004.15,0002.76
2024-06-03 00:21:00,SystemResetWarning,0822.6,5.00,000.00,029.0,025.2,000.0,037.9,029.5,018.0,0000.0,0018.94,0004.16,0002.76
2024-06-03 00:22:00,SystemResetWarning,0822.8,5.01,000.00,028.8,025.6,000.0,037.8,029.6,018.2,0000.0,0020.61,0004.16,0002.76
2024-06-03 00:23:00,SystemResetWarning,0823.1,5.00,000.00,028.8,026.1,000.0,037.6,029.9,019.0,0000.0,0021.15,0004.15,0002.75
2024-06-03 00:24:00,SystemResetWarning,0822.8,4.98,000.00,028.8,026.6,000.0,037.5,030.1,019.1,0000.0,0022.12,0004.20,0002.76
2024-06-03 00:25:00,SystemResetWarning,0822.6,5.01,000.00,028.8,027.1,000.0,037.4,030.4,018.5,0000.0,0022.94,0004.21,0002.78
2024-06-03 00:26:00,SystemResetWarning,0822.6,5.01,000.00,028.9,027.5,000.0,037.4,030.6,018.6,0000.0,0022.78,0004.11,0002.77
2024-06-03 00:27:00,SystemResetWarning,0822.8,4.99,000.00,029.0,027.8,000.0,037.4,030.7,017.9,0000.0,0022.70,0004.09,0002.76
2024-06-03 00:28:00,SystemResetWarning,0822.8,5.00,000.00,029.0,028.1,000.0,037.4,030.8,017.7,0000.0,0021.82,0004.07,0002.76
2024-06-03 00:29:00,SystemResetWarning,0822.9,5.00,000.00,029.1,028.3,000.0,037.4,030.9,018.3,0000.0,0022.02,0004.11,0002.76
2024-06-03 00:30:00,SystemResetWarning,0822.8,5.00,000.00,029.2,028.5,000.0,037.4,031.0,018.7,0000.0,0022.70,0004.11,0002.74
2024-06-03 00:31:00,SystemResetWarning,0822.7,5.00,000.00,029.3,028.7,000.0,037.4,031.1,018.8,0000.0,0022.18,0004.09,0002.74
2024-06-03 00:32:00,SystemResetWarning,0822.7,5.00,000.00,029.3,028.9,000.0,037.5,031.2,018.4,0000.0,0020.38,0004.06,0002.75
2024-06-03 00:33:00,SystemResetWarning,0822.7,5.00,000.00,029.4,029.0,000.0,037.5,031.3,018.1,0000.0,0017.92,0003.99,0002.74
2024-06-03 00:34:00,SystemResetWarning,0822.7,5.00,000.00,029.5,029.1,000.0,037.5,031.4,018.6,0000.0,0016.46,0003.97,0002.72
2024-06-03 00:35:00,SystemResetWarning,0822.8,4.99,000.00,029.6,029.2,000.0,037.6,031.5,018.9,0000.0,0015.74,0003.93,0002.71
2024-06-03 00:36:00,SystemResetWarning,0822.8,4.99,000.00,029.6,029.3,000.0,037.6,031.5,019.0,0000.0,0014.74,0003.88,0002.68
2024-06-03 00:37:00,SystemResetWarning,0822.8,5.00,000.00,029.7,029.4,000.0,037.7,031.6,018.6,0000.0,0015.52,0003.95,0002.68
2024-06-03 00:38:00,SystemResetWarning,0822.7,4.99,000.00,029.8,029.3,000.0,037.7,031.6,018.9,0000.0,0015.23,0003.98,0002.67
2024-06-03 00:39:00,SystemResetWarning,0822.8,5.00,000.00,029.6,027.3,000.0,037.8,030.6,019.0,0000.0,0014.78,0003.98,0002.65
2024-06-03 00:40:00,SystemResetWarning,0822.6,5.02,000.00,029.2,026.3,000.0,037.8,030.1,019.2,0000.0,0014.01,0003.93,0002.65
2024-06-03 00:41:00,SystemResetWarning,0822.6,5.01,000.00,029.1,026.6,000.0,037.8,030.1,019.3,0000.0,0013.28,0003.90,0002.65
2024-06-03 00:42:00,SystemResetWarning,0822.6,4.99,000.00,029.1,027.0,000.0,037.7,030.4,018.4,0000.0,0012.75,0003.96,0002.63
2024-06-03 00:43:00,SystemResetWarning,0822.6,5.00,000.00,029.1,027.4,000.0,037.6,030.6,018.3,0000.0,0012.06,0003.94,0002.62
2024-06-03 00:44:00,SystemResetWarning,0822.9,4.99,000.00,029.2,027.8,000.0,037.6,030.8,018.6,0000.0,0011.92,0003.94,0002.59
2024-06-03 00:45:00,SystemResetWarning,0823.0,5.01,000.00,029.2,028.1,000.0,037.6,030.9,019.0,0000.0,0012.21,0003.95,0002.58
2024-06-03 00:46:00,SystemResetWarning,0822.9,5.00,000.00,029.3,028.3,000.0,037.6,031.0,018.6,0000.0,0012.51,0003.96,0002.57
2024-06-03 00:47:00,SystemResetWarning,0822.8,4.99,000.00,029.4,028.6,000.0,037.6,031.1,018.7,0000.0,0012.12,0003.98,0002.57
2024-06-03 00:48:00,SystemResetWarning,0822.8,5.00,000.00,029.4,028.7,000.0,037.6,031.2,019.0,0000.0,0012.30,0003.94,0002.56
2024-06-03 00:49:00,SystemResetWarning,0822.7,5.00,000.00,029.5,028.9,000.0,037.6,031.3,018.4,0000.0,0012.50,0003.93,0002.55
2024-06-03 00:50:00,SystemResetWarning,0822.8,5.00,000.00,029.6,029.0,000.0,037.7,031.4,018.0,0000.0,0013.09,0003.94,0002.54
2024-06-03 00:51:00,SystemResetWarning,0822.7,5.01,000.00,029.6,029.1,000.0,037.7,031.5,017.3,0000.0,0013.17,0003.94,0002.53
2024-06-03 00:52:00,SystemResetWarning,0822.7,5.01,000.00,029.7,029.2,000.0,037.7,031.6,017.2,0000.0,0013.56,0003.96,0002.52
2024-06-03 00:53:00,SystemResetWarning,0822.7,5.00,000.00,029.8,029.3,000.0,037.8,031.6,017.1,0000.0,0013.62,0003.87,0002.51
2024-06-03 00:54:00,SystemResetWarning,0822.8,4.99,000.00,029.8,029.4,000.0,037.8,031.7,017.2,0000.0,0014.66,0003.84,0002.49
2024-06-03 00:55:00,SystemResetWarning,0822.8,5.00,000.00,029.8,028.7,000.0,037.9,031.3,017.2,0000.0,0015.37,0003.86,0002.50
2024-06-03 00:56:00,SystemResetWarning,0822.6,5.01,000.00,029.5,026.6,000.0,037.9,030.3,017.3,0000.0,0015.11,0003.85,0002.51
2024-06-03 00:57:00,SystemResetWarning,0822.6,5.02,000.00,029.2,026.4,000.0,037.9,030.1,017.6,0000.0,0015.10,0003.83,0002.52
2024-06-03 00:58:00,SystemResetWarning,0822.6,5.00,000.00,029.1,026.8,000.0,037.8,030.3,017.6,0000.0,0015.01,0003.84,0002.52
2024-06-03 00:59:00,SystemResetWarning,0822.7,5.00,000.00,029.2,027.2,000.0,037.7,030.5,017.7,0000.0,0013.83,0003.85,0002.52
